| time (UTC) | temp F | wind direction | speed MPH | gust MPH | rain 1hr in | rain 24hr in | rain mn in | humidity % | barometer mb |
| 20260901142534 | 53 | 277 | 3.0 | 7.0 | 0.00 | 0.00 | 0.00 | 83 | |
| 20260901141526 | 53 | 271 | 3.0 | 8.0 | 0.00 | 0.00 | 0.00 | 82 | |
| 20260901140535 | 53 | 272 | 3.0 | 6.0 | 0.00 | 0.00 | 0.00 | 83 | |
| 20260901135526 | 52 | 258 | 3.0 | 6.0 | 0.00 | 0.00 | 0.00 | 84 | |
| 20260901134534 | 52 | 273 | 3.0 | 6.0 | 0.00 | 0.00 | 0.00 | 85 | |
| 20260901133526 | 52 | 269 | 2.0 | 6.0 | 0.00 | 0.00 | 0.00 | 85 | |
| 20260901132534 | 52 | 273 | 2.0 | 6.0 | 0.00 | 0.00 | 0.00 | 85 | |
| 20260901131606 | 52 | 261 | 2.0 | 3.0 | 0.00 | 0.00 | 0.00 | 85 | |
| 20260901130535 | 52 | 260 | 2.0 | 3.0 | 0.00 | 0.00 | 0.00 | 84 | |
| 20260901125546 | 52 | 273 | 2.0 | 3.0 | 0.00 | 0.00 | 0.00 | 84 | |
| 20260901124534 | 52 | 262 | 2.0 | 3.0 | 0.00 | 0.00 | 0.00 | 84 | |
| 20260901123526 | 51 | 249 | 1.0 | 2.0 | 0.00 | 0.00 | 0.00 | 85 | |
| 20260901122554 | 51 | 243 | 0.0 | 2.0 | 0.00 | 0.00 | 0.00 | 86 | |
| 20260901121526 | 51 | 0.0 | 0.0 | 0.00 | 0.00 | 0.00 | 84 | ||
| 20260901120534 | 51 | 0.0 | 0.0 | 0.00 | 0.00 | 0.00 | 83 | ||
| 20260901115526 | 51 | 234 | 1.0 | 1.0 | 0.00 | 0.00 | 0.00 | 83 | |
| 20260901114534 | 51 | 230 | 0.0 | 2.0 | 0.00 | 0.00 | 0.00 | 82 | |
| 20260901113526 | 52 | 244 | 0.0 | 1.0 | 0.00 | 0.00 | 0.00 | 81 | |
| 20260901112534 | 52 | 257 | 0.0 | 2.0 | 0.00 | 0.00 | 0.00 | 81 | |
| 20260901111546 | 52 | 0.0 | 0.0 | 0.00 | 0.00 | 0.00 | 79 | ||
| 20260901110535 | 52 | 237 | 0.0 | 1.0 | 0.00 | 0.00 | 0.00 | 79 | |
| 20260901105526 | 53 | 238 | 0.0 | 1.0 | 0.00 | 0.00 | 0.00 | 77 | |
| 20260901104534 | 53 | 230 | 0.0 | 2.0 | 0.00 | 0.00 | 0.00 | 76 | |
| 20260901103526 | 54 | 241 | 1.0 | 2.0 | 0.00 | 0.00 | 0.00 | 74 | |
| 20260901102554 | 54 | 252 | 2.0 | 3.0 | 0.00 | 0.00 | 0.00 | 74 | |
| 20260901101526 | 54 | 276 | 2.0 | 6.0 | 0.00 | 0.00 | 0.00 | 74 | |
| 20260901100534 | 55 | 274 | 3.0 | 7.0 | 0.00 | 0.00 | 0.00 | 73 | |
| 20260901095526 | 55 | 276 | 3.0 | 7.0 | 0.00 | 0.00 | 0.00 | 73 | |
| 20260901094534 | 55 | 273 | 3.0 | 6.0 | 0.00 | 0.00 | 0.00 | 72 | |
| 20260901093526 | 55 | 278 | 3.0 | 8.0 | 0.00 | 0.00 | 0.00 | 71 | |
| 20260901092534 | 55 | 267 | 3.0 | 9.0 | 0.00 | 0.00 | 0.00 | 70 | |
| 20260901091527 | 56 | 256 | 2.0 | 5.0 | 0.00 | 0.00 | 0.00 | 69 | |
| 20260901090554 | 56 | 266 | 2.0 | 8.0 | 0.00 | 0.00 | 0.00 | 68 | |
| 20260901085526 | 56 | 275 | 3.0 | 9.0 | 0.00 | 0.00 | 0.00 | 67 | |
| 20260901084535 | 57 | 281 | 4.0 | 10.0 | 0.00 | 0.00 | 0.00 | 66 | |
| 20260901083526 | 57 | 284 | 5.0 | 9.0 | 0.00 | 0.00 | 0.00 | 65 | |
| 20260901082534 | 57 | 275 | 6.0 | 11.0 | 0.00 | 0.00 | 0.00 | 64 | |
| 20260901081546 | 57 | 290 | 7.0 | 14.0 | 0.00 | 0.00 | 0.00 | 62 | |
| 20260901080554 | 58 | 274 | 7.0 | 11.0 | 0.00 | 0.00 | 0.00 | 61 | |
| 20260901075526 | 58 | 277 | 7.0 | 13.0 | 0.00 | 0.00 | 0.00 | 59 | |
| 20260901074535 | 58 | 280 | 8.0 | 15.0 | 0.00 | 0.00 | 0.00 | 58 | |
| 20260901073526 | 59 | 275 | 8.0 | 17.0 | 0.00 | 0.00 | 0.00 | 56 | |
| 20260901072534 | 59 | 284 | 9.0 | 18.0 | 0.00 | 0.00 | 0.00 | 56 | |
| 20260901071526 | 60 | 284 | 7.0 | 16.0 | 0.00 | 0.00 | 0.00 | 57 | |
| 20260901070536 | 61 | 279 | 11.0 | 21.0 | 0.00 | 0.00 | 0.00 | 55 | |
| 20260901065527 | 61 | 274 | 7.0 | 17.0 | 0.00 | 0.00 | 0.00 | 54 | |
| 20260901064555 | 61 | 287 | 10.0 | 18.0 | 0.00 | 0.00 | 0.00 | 52 | |
| 20260901063707 | 62 | 267 | 6.0 | 19.0 | 0.00 | 0.00 | 0.00 | 51 | |
| 20260901062610 | 62 | 268 | 7.0 | 15.0 | 0.00 | 0.00 | 0.00 | 50 | |
| 20260901061527 | 62 | 284 | 8.0 | 22.0 | 0.00 | 0.00 | 0.00 | 49 | |
| 20260901060534 | 62 | 283 | 11.0 | 26.0 | 0.00 | 0.00 | 0.00 | 48 | |
| 20260901055527 | 63 | 279 | 9.0 | 18.0 | 0.00 | 0.00 | 0.00 | 49 | |
| 20260901054534 | 63 | 275 | 9.0 | 19.0 | 0.00 | 0.00 | 0.00 | 46 | |
| 20260901053546 | 63 | 286 | 10.0 | 19.0 | 0.00 | 0.00 | 0.00 | 47 | |
| 20260901052534 | 63 | 270 | 10.0 | 24.0 | 0.00 | 0.00 | 0.00 | 43 | |
| 20260901051526 | 64 | 282 | 9.0 | 21.0 | 0.00 | 0.00 | 0.00 | 44 | |
| 20260901050536 | 63 | 269 | 7.0 | 17.0 | 0.00 | 0.00 | 0.00 | 44 | |
| 20260901045547 | 64 | 269 | 8.0 | 18.0 | 0.00 | 0.00 | 0.00 | 44 | |
| 20260901044536 | 64 | 272 | 11.0 | 26.0 | 0.00 | 0.00 | 0.00 | 44 | |
| 20260901043548 | 64 | 282 | 7.0 | 15.0 | 0.00 | 0.00 | 0.00 | 44 | |
| 20260901042535 | 64 | 256 | 8.0 | 19.0 | 0.00 | 0.00 | 0.00 | 44 | |
| 20260901041527 | 64 | 266 | 8.0 | 22.0 | 0.00 | 0.00 | 0.00 | 44 | |
| 20260901040535 | 64 | 277 | 11.0 | 21.0 | 0.00 | 0.00 | 0.00 | 43 | |
| 20260901035548 | 64 | 267 | 8.0 | 17.0 | 0.00 | 0.00 | 0.00 | 44 | |
| 20260901034535 | 64 | 287 | 9.0 | 16.0 | 0.00 | 0.00 | 0.00 | 43 | |
| 20260901033526 | 64 | 270 | 9.0 | 18.0 | 0.00 | 0.00 | 0.00 | 45 | |
| 20260901032535 | 64 | 281 | 10.0 | 22.0 | 0.00 | 0.00 | 0.00 | 44 | |
| 20260901031608 | 63 | 277 | 11.0 | 26.0 | 0.00 | 0.00 | 0.00 | 45 | |
| 20260901030534 | 64 | 279 | 9.0 | 22.0 | 0.00 | 0.00 | 0.00 | 45 | |
| 20260901025527 | 63 | 282 | 10.0 | 26.0 | 0.00 | 0.00 | 0.00 | 44 | |
| 20260901024554 | 63 | 276 | 10.0 | 19.0 | 0.00 | 0.00 | 0.00 | 49 | |
| 20260901023527 | 63 | 273 | 7.0 | 15.0 | 0.00 | 0.00 | 0.00 | 54 | |
| 20260901022535 | 62 | 283 | 12.0 | 23.0 | 0.00 | 0.00 | 0.00 | 54 | |
| 20260901021527 | 62 | 291 | 12.0 | 21.0 | 0.00 | 0.00 | 0.00 | 53 | |
| 20260901020534 | 62 | 283 | 10.0 | 17.0 | 0.00 | 0.00 | 0.00 | 52 | |
| 20260901015527 | 62 | 279 | 10.0 | 23.0 | 0.00 | 0.00 | 0.00 | 53 | |
| 20260901014534 | 62 | 295 | 10.0 | 21.0 | 0.00 | 0.00 | 0.00 | 52 | |
| 20260901013527 | 62 | 283 | 10.0 | 21.0 | 0.00 | 0.00 | 0.00 | 53 | |
| 20260901012535 | 61 | 275 | 12.0 | 25.0 | 0.00 | 0.00 | 0.00 | 53 | |
| 20260901011547 | 62 | 279 | 9.0 | 19.0 | 0.00 | 0.00 | 0.00 | 54 | |
| 20260901010535 | 61 | 280 | 9.0 | 17.0 | 0.00 | 0.00 | 0.00 | 56 | |
| 20260901005527 | 61 | 272 | 11.0 | 25.0 | 0.00 | 0.00 | 0.00 | 57 | |
| 20260901004555 | 60 | 276 | 9.0 | 19.0 | 0.00 | 0.00 | 0.00 | 59 | |
| 20260901003527 | 60 | 279 | 10.0 | 22.0 | 0.00 | 0.00 | 0.00 | 60 | |
| 20260901002535 | 60 | 278 | 7.0 | 15.0 | 0.00 | 0.00 | 0.00 | 63 | |
| 20260901001608 | 60 | 270 | 5.0 | 15.0 | 0.00 | 0.00 | 0.00 | 64 | |
| 20260901000535 | 59 | 286 | 6.0 | 13.0 | 0.00 | 0.00 | 0.00 | 66 | |
| 20260831235526 | 58 | 283 | 6.0 | 16.0 | 0.00 | 0.00 | 0.00 | 67 | |
| 20260831234535 | 58 | 281 | 8.0 | 17.0 | 0.00 | 0.00 | 0.00 | 67 | |
| 20260831233527 | 57 | 277 | 8.0 | 17.0 | 0.00 | 0.00 | 0.00 | 68 | |
| 20260831232555 | 57 | 278 | 8.0 | 15.0 | 0.00 | 0.00 | 0.00 | 68 | |
| 20260831231526 | 57 | 292 | 6.0 | 13.0 | 0.00 | 0.00 | 0.00 | 68 | |
| 20260831230535 | 56 | 285 | 6.0 | 13.0 | 0.00 | 0.00 | 0.00 | 69 | |
| 20260831225527 | 55 | 293 | 5.0 | 9.0 | 0.00 | 0.00 | 0.00 | 71 | |
| 20260831224535 | 55 | 291 | 4.0 | 11.0 | 0.00 | 0.00 | 0.00 | 72 | |
| 20260831223527 | 57 | 273 | 2.0 | 6.0 | 0.00 | 0.00 | 0.00 | 69 | |
| 20260831222534 | 54 | 0.0 | 0.0 | 0.00 | 0.00 | 0.00 | 73 | ||
| 20260831221527 | 51 | 160 | 0.0 | 1.0 | 0.00 | 0.00 | 0.00 | 75 | |
| 20260831220535 | 50 | 0.0 | 0.0 | 0.00 | 0.00 | 0.00 | 76 | ||
| 20260831215527 | 49 | 0.0 | 0.0 | 0.00 | 0.00 | 0.00 | 77 | ||
| 20260831214616 | 50 | 195 | 0.0 | 1.0 | 0.00 | 0.00 | 0.00 | 78 | |
| 20260831213527 | 49 | 0.0 | 0.0 | 0.00 | 0.00 | 0.00 | 82 | ||
| 20260831212535 | 46 | 0.0 | 0.0 | 0.00 | 0.00 | 0.00 | 91 | ||
| 20260831211528 | 45 | 0.0 | 0.0 | 0.00 | 0.00 | 0.00 | 98 | ||
| 20260831210535 | 44 | 0.0 | 0.0 | 0.00 | 0.00 | 0.00 | 98 | ||
| 20260831205526 | 42 | 0.0 | 0.0 | 0.00 | 0.00 | 0.00 | 99 | ||
| 20260831204535 | 40 | 0.0 | 0.0 | 0.00 | 0.00 | 0.00 | 98 | ||
| 20260831203527 | 39 | 0.0 | 0.0 | 0.00 | 0.00 | 0.00 | 98 | ||
| 20260831202535 | 38 | 0.0 | 0.0 | 0.00 | 0.00 | 0.00 | 98 | ||
| 20260831201527 | 39 | 0.0 | 0.0 | 0.00 | 0.00 | 0.00 | 98 | ||
| 20260831200535 | 40 | 0.0 | 0.0 | 0.00 | 0.00 | 0.00 | 98 | ||
| 20260831195547 | 40 | 0.0 | 0.0 | 0.00 | 0.00 | 0.00 | 98 | ||
| 20260831194537 | 40 | 0.0 | 0.0 | 0.00 | 0.00 | 0.00 | 98 | ||
| 20260831193528 | 39 | 0.0 | 0.0 | 0.00 | 0.00 | 0.00 | 98 | ||
| 20260831192555 | 39 | 0.0 | 0.0 | 0.00 | 0.00 | 0.00 | 98 | ||
| 20260831191527 | 39 | 0.0 | 0.0 | 0.00 | 0.00 | 0.00 | 97 | ||
| 20260831190535 | 39 | 0.0 | 0.0 | 0.00 | 0.00 | 0.00 | 97 | ||
| 20260831185547 | 38 | 0.0 | 0.0 | 0.00 | 0.00 | 0.00 | 97 | ||
| 20260831184535 | 38 | 0.0 | 0.0 | 0.00 | 0.00 | 0.00 | 97 | ||
| 20260831183527 | 39 | 0.0 | 0.0 | 0.00 | 0.00 | 0.00 | 96 | ||
| 20260831182535 | 39 | 0.0 | 0.0 | 0.00 | 0.00 | 0.00 | 96 | ||
| 20260831181527 | 39 | 0.0 | 0.0 | 0.00 | 0.00 | 0.00 | 96 | ||
| 20260831180535 | 39 | 0.0 | 0.0 | 0.00 | 0.00 | 0.00 | 96 | ||
| 20260831175527 | 39 | 0.0 | 0.0 | 0.00 | 0.00 | 0.00 | 95 | ||
| 20260831174555 | 40 | 202 | 0.0 | 1.0 | 0.00 | 0.00 | 0.00 | 95 | |
| 20260831173527 | 40 | 205 | 1.0 | 2.0 | 0.00 | 0.00 | 0.00 | 95 | |
| 20260831172535 | 41 | 0.0 | 0.0 | 0.00 | 0.00 | 0.00 | 94 | ||
| 20260831171528 | 41 | 204 | 1.0 | 2.0 | 0.00 | 0.00 | 0.00 | 94 | |
| 20260831170535 | 41 | 201 | 0.0 | 1.0 | 0.00 | 0.00 | 0.00 | 92 | |
| 20260831165527 | 42 | 199 | 0.0 | 1.0 | 0.00 | 0.00 | 0.00 | 93 | |
| 20260831164535 | 42 | 204 | 1.0 | 2.0 | 0.00 | 0.00 | 0.00 | 92 | |
| 20260831163527 | 42 | 0.0 | 0.0 | 0.00 | 0.00 | 0.00 | 92 | ||
| 20260831162535 | 42 | 199 | 1.0 | 2.0 | 0.00 | 0.00 | 0.00 | 93 | |
| 20260831161543 | 42 | 0.0 | 0.0 | 0.00 | 0.00 | 0.00 | 91 | ||
| 20260831160535 | 41 | 203 | 1.0 | 2.0 | 0.00 | 0.00 | 0.00 | 92 | |
| 20260831155547 | 42 | 204 | 1.0 | 2.0 | 0.00 | 0.00 | 0.00 | 90 | |
| 20260831154555 | 43 | 0.0 | 0.0 | 0.00 | 0.00 | 0.00 | 92 | ||
| 20260831153548 | 41 | 0.0 | 0.0 | 0.00 | 0.00 | 0.00 | 91 | ||
| 20260831152535 | 42 | 0.0 | 0.0 | 0.00 | 0.00 | 0.00 | 89 | ||
| 20260831151527 | 42 | 205 | 1.0 | 1.0 | 0.00 | 0.00 | 0.00 | 88 | |
| 20260831150536 | 43 | 195 | 0.0 | 1.0 | 0.00 | 0.00 | 0.00 | 88 | |
| 20260831145527 | 43 | 204 | 1.0 | 2.0 | 0.00 | 0.00 | 0.00 | 88 | |
| 20260831144535 | 43 | 201 | 0.0 | 1.0 | 0.00 | 0.00 | 0.00 | 87 | |
| 20260831143527 | 44 | 212 | 1.0 | 2.0 | 0.00 | 0.00 | 0.00 | 87 |